カタログに戻る

ELECTRON KICK STAGE R/B

運用中PO
NORAD 67559·ROCKET BODY·🇺🇸 United States

打ち上げ Jan 22, 2026 から Rocket Lab Launch Complex 1

Loading…

次のパス (今後24時間)

TLE

最新Source: Space-Track

元期: Sep 14, 2026, 17:38 UTC

1 67559U 26015D   26257.73516318  .00046895 -30590-6  60131-3 0  9992
2 67559  89.0345 255.0221 0416253 208.0282 149.7977 14.97089806 34848

AllMySatでELECTRON KICK STAGE R/Bをリアルタイム追跡

Download on the App Store